Rbgn^[z[y[W
メイン
   新天体発見情報
     Comet P/2007 R1 = 2019 K3 (Larson)
投稿するにはまず登録を

フラット表示 前のトピック | 次のトピック
投稿者 スレッド
佐藤裕久
投稿日時: 2019-6-20 21:44
モデレータ
登録日: 2005-6-12
居住地: 日本
投稿: 2505
オンライン
Comet P/2007 R1 = 2019 K3 (Larson)

E. Schwab (Egelsbach, ドイツ)の通報によると、5月29日と6月3日の二夜、Calar Altoにある0.8-m 
f/3 Schmidt望遠鏡によるCCD画像から、P/2007 R1 (IAUC 8867を参照)を検出した。全600秒の露出に
よるフレーム上にコマも尾も見えなかった。また、小惑星センターのG. V. Williamsの通報によると、
5月31日、Pan-STARRS 1サーベイでHaleakalaにある1.8-m Ritchey-Chretien反射望遠鏡で得た画像に
より提出された二次的な位置観測からこの彗星を検出した。
MPC 75514のWilliamsの予報に対する修正値は、Delta(T) = -0.08 dayであった。

検出位置は次のとおり、

     2019 UT             R.A. (2000) Decl.       Mag.   Observer
     May  29.08794   16 42 15.85   -13 26 23.9   21.9   Schwab
          29.10684   16 42 15.21   -13 26 22.0   21.7     "
          29.11628   16 42 14.94   -13 26 22.4   22.1     "
          31.45154   16 41 08.96   -13 23 24.6   22.0   PanSTARRS1
          31.46447   16 41 08.59   -13 23 23.4   22.0     "
          31.49031   16 41 07.86   -13 23 21.6   21.9     "
     June  3.00463   16 39 56.43   -13 20 20.5   22.1   Schwab
           3.01404   16 39 56.12   -13 20 19.1   21.6     "
           3.02346   16 39 55.88   -13 20 18.5   21.3     "
           3.03287   16 39 55.56   -13 20 17.7   22.1     "

連結軌道要素と位置推算表は次のとおり、

Orbital elements:
    P/2007 R1 (Larson)
Epoch 2007 Aug. 8.0 TT = JDT 2454320.5
T 2007 Aug. 22.97599 TT                                 MPCW
q   4.3518440            (2000.0)            P               Q
n   0.06667844     Peri.  175.04601     +0.99832956     +0.05763877
a   6.0229940      Node   181.66538     -0.05659246     +0.96166377
e   0.2774617      Incl.    7.87763     -0.01163560     +0.26810553
P  14.78
From 226 observations 2007 Sept. 4-2019 June 3, mean residual 0".6.

    P/2007 R1 (Larson)
Epoch 2022 Mar. 2.0 TT = JDT 2459640.5
T 2022 Feb. 17.41718 TT                                 MPCW
q   4.4197574            (2000.0)            P               Q
n   0.05987738     Peri.  170.98593     +0.96486037     +0.26229019
a   6.4708426      Node   173.74093     -0.24919151     +0.93240310
e   0.3169734      Incl.    8.31059     -0.08335502     +0.24865298
P  16.46
From 226 observations 2007 Sept. 4-2019 June 3, mean residual 0".6.

    P/2007 R1 (Larson)
Epoch 2036 Jan. 28.0 TT = JDT 2464720.5
T 2036 Jan. 23.43629 TT                                 MPCW
q   4.3768235            (2000.0)            P               Q
n   0.06906500     Peri.  163.14965     +0.88504667     +0.46468169
a   5.8834314      Node   169.03572     -0.44208856     +0.85763530
e   0.2560764      Incl.    8.35246     -0.14577415     +0.22030119
P  14.27
From 226 observations 2007 Sept. 4-2019 June 3, mean residual 0".6.

    P/2007 R1 (Larson)
Epoch 2019 Apr. 27.0 TT = JDT 2458600.5
T 2022 May 14.15173 TT                                  MPCW
q   4.3268126            (2000.0)            P               Q
n   0.06549027     Peri.  174.88753     +0.99588309     +0.09064672
a   6.0956246      Node   179.91085     -0.08719296     +0.95856261
e   0.2901773      Incl.    7.70299     -0.02478425     +0.27007572
P  15.05
From 226 observations 2007 Sept. 4-2019 June 3, mean residual 0".6.

Ephemeris:
    P/2007 R1 (Larson)
Date    TT    R. A. (2000) Decl.     Delta      r     Elong.  Phase   m1
2019 05 04    16 52 46.5 -14 04 09   5.1848  6.0668   148.4     5.0  21.9
...
2019 05 19    16 46 51.8 -13 40 29   5.0611  6.0363   163.1     2.8  21.8
...
2019 05 27    16 43 14.4 -13 29 09   5.0210  6.0199   169.5     1.8  21.8
...
2019 06 02    16 40 25.0 -13 21 30   5.0033  6.0076   171.2     1.5  21.8
2019 06 03    16 39 56.6 -13 20 19   5.0014  6.0055   171.1     1.5  21.8
2019 06 04    16 39 28.1 -13 19 09   4.9998  6.0035   170.9     1.5  21.8
...
2019 06 10    16 36 38.3 -13 12 47   4.9964  5.9912   167.4     2.1  21.8
...
2019 06 18    16 32 59.2 -13 06 02   5.0081  5.9747   160.4     3.3  21.8
...
2019 07 03    16 26 57.9 -12 59 29   5.0770  5.9436   145.6     5.5  21.8

(CBET 4635、MPEC 2019-L42)

フラット表示 前のトピック | 次のトピック

題名 投稿者 日時
 » Comet P/2007 R1 = 2019 K3 (Larson) 佐藤裕久 2019-6-20 21:44

投稿するにはまず登録を
 
© 1999 Tsutomu Seki.